Flag for China Weather past 2 weeks in Nanjing, Jiangsu, China

Now
97 °F

Passing clouds.


Feels Like: 112 °F
Forecast: 81 / 97 °F
Wind: 10 mph from Southwest

Location: Nanjing

Current Time: Aug 2, 2015 at 2:27:38 PM

Latest Report: Aug 2, 2015 at 2:00 PM


Visibility: N/A

Pressure: 29.74 "Hg

Humidity: 53%

Dew point: 77 °F

Location of NanjingLocation

Historic Weather in Nanjing — Graph

°F

Nanjing temperature yesterday

Maximum temperature yesterday: 97 °F (at 1:00 PM)
Minimum temperature yesterday: 81 °F (at 2:00 AM)
Average temperature yesterday: 88 °F

Past Weeks' High & Low Weather Summary

 TemperatureHumidityPressure
High97 °F (Aug 1, 1:00 PM)100% (Jul 19, 2:00 AM)29.80 "Hg (Jul 19, 2:00 AM)
Low72 °F (Jul 19, 9:00 PM)47% (Jul 31, 4:00 PM)29.56 "Hg (Jul 24, 2:00 PM)
Average83 °F84%29.70 "Hg
* Reported Jul 18 1:00 PM — Aug 2 1:00 PM, Nanjing, Weather by CustomWeather, © 2015

Note: Actual official high and low records may vary slightly from our data, if they occured in-between our weather recording intervals... More about our weather records

Advertising

Nanjing weather history for previous 24 hours

 ConditionsComfort  
Time TempWeatherWind HumidityBarometerVisibility
1:00 PM
Sun, Aug 2
97 °FPassing clouds.10 mph53%29.74 "HgN/A
12:00 PM97 °FPassing clouds.13 mph53%29.77 "HgN/A
11:00 AM95 °FSunny.13 mph56%29.80 "Hg10 mi
10:00 AM93 °FPassing clouds.13 mph59%29.80 "HgN/A
9:00 AM93 °FSunny.8 mph56%29.80 "Hg10 mi
8:00 AM90 °FSunny.3 mph71%29.80 "Hg10 mi
7:00 AM84 °FClear.1 mph89%29.80 "Hg4 mi
6:00 AM79 °FClear.1 mph100%29.80 "Hg4 mi
5:00 AM79 °FClear.No wind94%29.77 "Hg4 mi
4:00 AM79 °FClear.1 mph94%29.77 "Hg10 mi
3:00 AM81 °FClear.1 mph89%29.77 "Hg10 mi
2:00 AM82 °FClear.1 mph89%29.77 "Hg10 mi
1:00 AM81 °FClear.1 mph94%29.77 "Hg10 mi
12:00 AM82 °FClear.No wind84%29.77 "Hg10 mi
11:00 PM
Sat, Aug 1
84 °FClear.3 mph79%29.77 "Hg10 mi
10:00 PM82 °FClear.1 mph84%29.77 "Hg10 mi
9:00 PM84 °FClear.1 mph84%29.77 "Hg10 mi
8:00 PM84 °FClear.1 mph84%29.74 "Hg10 mi
7:00 PM88 °FSunny.1 mph66%29.74 "Hg10 mi
6:00 PM93 °FSunny.3 mph56%29.74 "Hg10 mi
5:00 PM95 °FSunny.8 mph50%29.71 "Hg10 mi
4:00 PM95 °FPassing clouds.8 mph53%29.74 "HgN/A
3:00 PM95 °FScattered clouds.10 mph53%29.74 "HgN/A
2:00 PM93 °FScattered clouds.10 mph56%29.77 "HgN/A
Weather by CustomWeather, © 2015

See weather overviewHow to use our weather pages